SCP
0 0 0 0 0 0 0 0 0 0 0 0 0 -0 0 0 0 0 0 0 0 0 0 -0 0 0 0 0 0 0 0 0 0 0 0 -0 -0 -0 -0 -0 -0 0 0 0
0 0 0 0 0 0 0 0 0 0 0 0 0 0 0 0 0 0 0 0 0 0 0 -0 -0 -0 -0 -0 -0 -0 0 0 0 -0 0 -0 -0 -0 -0 -0 -0 -0 -0 0
0 0 0 0 0 0 0 0 0 0 0 0 0 0 0 0 0 0 0 0 0 0 0 0 -0 -0 -0 -0 -0 -0 -0 -0 -0 0 -0 0 0 0 0 -0 -0 -0 -0 0
0 0 0 0 0 0 0 0 0 0 0 0 0 0 0 0 0 0 0 0 -0 0 0 0 0 -0 -0 -0 0 -0 -0 -0 -0 -0 0 0 0 0 0 0 0 0 -0 0
0 0 0 0 0 0 0 0 0 0 0 0 0 0 0 0 0 0 0 0 0 0 0 0 0 0 0 0 -0 -0 -0 -0 -0 0 0 0 0 0 0 0 0 0 0 0
0 0 0 0 0 0 0 0 0 0 0 0 0 0 0 0 0 0 0 0 0 0 0 0 0 0 0 0 0 0 0 0 0 0 0 0 0 0 0 0 0 0 0 0
0 0 0 0 0 0 0 0 0 0 0 0 0 0 0 0 0 0 0 0 0 0 0 0 0 0 0 0 0 0 0 0 0 0 0 0 0 0 0 0 0 0 0 0
0 0 0 0 0 0 0 0 0 0 0 0 0 0 0 0 0 0 0 0 0 0 0 0 0 0 0 0 0 0 0 0 0 0 0 0 0 0 0 0 0 0 0 0
0 0 0 0 0 0 0 0 0 0 0 0 0 0 0 0 0 0 0 0 0 0 0 0 0 0 0 0 0 0 0 0 0 0 0 0 0 0 0 0 0 0 0 0
0 0 0 0 0 0 0 0 0 0 0 0 0 0 0 0 0 0 0 0 0 0 0 0 0 0 0 0 0 0 0 0 0 0 0 0 0 0 0 0 0 0 0 0
0 0 0 0 0 0 0 0 0 0 0 0 0 0 0 0 0 0 0 0 0 0 0 0 0 0 0 0 0 0 0 0 0 0 0 0 0 0 0 0 0 0 0 0
0 0 0 0 0 0 0 0 0 0 0 0 0 0 0 0 0 0 0 0 0 0 0 0 0 0 0 0 0 0 0 0 0 0 0 0 0 0 0 0 0 0 0 0
0 0 0 0 0 0 0 0 0 0 0 0 0 0 0 0 0 0 0 0 0 0 0 0 0 0 0 0 0 0 0 0 0 0 0 0 0 0 0 0 0 -0 -0 0
0 0 0 0 0 0 0 0 0 0 0 0 0 0 0 0 0 0 0 0 0 0 0 0 0 0 0 0 0 0 0 0 0 0 0 0 0 0 0 0 0 0 0 0
0 0 0 0 0 0 0 0 0 0 0 0 0 0 0 0 0 0 0 0 0 0 0 0 0 0 0 0 0 0 0 0 0 0 0 0 0 0 0 0 0 0 0 0
0 0 0 0 0 0 0 0 0 0 0 0 0 0 0 0 0 0 0 0 0 0 0 0 0 -0 -0 0 0 0 0 0 0 0 0 0 0 0 0 0 0 0 0 0
0 0 0 0 0 0 0 0 0 0 0 0 0 0 0 0 0 0 0 0 0 0 -0 -0 -0 -0 -0 -0 0 0 0 0 0 0 0 0 0 0 0 0 0 0 0 0
0 0 0 0 0 0 0 0 0 0 0 0 0 0 0 0 0 0 0 0 0 -0 -0 -0 -0 -0 -0 -0 0 0 0 0 0 0 0 0 0 0 0 0 0 0 0 0
0 0 0 0 0 0 0 0 0 0 0 0 0 0 0 0 0 0 0 0 -0 -0 -0 -0 -0 -0 -0 -0 -0 0 0 0 0 0 0 0 0 0 0 0 0 0 0 0
0 0 0 0 0 0 0 0 0 0 0 0 0 0 0 0 0 0 0 -0 -0 -0 0 0 -0 -0 -0 0 0 0 0 0 0 0 0 0 0 0 0 0 0 0 0 0
0 0 0 0 0 0 0 0 0 0 0 0 0 0 0 0 0 0 0 -0 0 0 0 0 0 0 0 0 0 0 0 0 0 0 0 0 0 0 0 0 0 0 0 0
0 0 0 0 0 0 0 0 0 0 0 0 0 0 0 0 0 0 0 -0 0 0 0 0 0 0 0 0 0 0 0 0 0 0 0 0 0 0 0 0 0 0 0 0
0 0 0 0 0 0 0 0 0 0 0 0 0 0 0 0 0 0 0 0 0 0 0 0 0 0 0 0 0 0 0 0 0 0 0 0 0 0 0 0 0 0 0 0
0 0 0 0 0 0 0 0 0 0 0 0 0 0 0 0 0 0 0 0 0 0 0 0 0 0 0 0 0 0 0 0 0 0 0 0 0 0 0 0 0 0 -0 0
0 0 0 0 0 0 0 0 0 0 0 0 0 0 0 0 0 0 0 0 0 0 0 0 0 0 0 0 0 0 0 0 0 0 0 0 0 0 0 0 0 0 -0 -0
0 0 0 0 0 0 0 0 0 0 0 0 0 0 0 0 0 0 0 0 0 0 0 0 0 0 0 0 0 0 0 0 0 0 0 0 0 0 0 0 0 0 0 -0
0 0 0 0 0 0 0 0 0 0 0 0 0 0 0 0 0 0 0 0 0 0 0 0 0 0 0 0 0 0 0 0 0 0 0 0 0 0 0 0 0 0 0 0
Wind_Speed_500mb
35 42 43 41 41 50 51 49 46 51 47 45 42 35 30 20 8 12 11 9 11 15 19 22 25 28 30 37 40 44 51 54 57 64 70 74 78 77 73 68 65 62 61 56
34 39 41 43 50 52 46 48 51 49 53 45 18 7 3 6 10 18 19 14 16 18 21 24 27 29 31 33 38 48 55 58 59 63 68 76 83 86 85 84 83 77 72 70
37 31 35 32 45 46 49 48 49 46 25 16 10 6 10 15 17 20 24 24 23 25 28 32 36 37 38 39 44 64 72 72 71 71 74 77 81 86 93 97 98 95 91 86
28 25 39 27 26 28 31 27 23 14 4 5 5 15 20 22 27 29 30 33 34 33 36 37 39 41 42 48 64 77 80 79 80 84 87 89 88 89 90 92 97 103 106 103
18 27 36 49 39 36 30 31 16 12 9 4 19 29 36 25 18 31 32 34 40 38 37 44 45 45 53 72 77 73 72 79 85 88 96 104 110 112 110 110 107 106 109 115
20 30 34 32 2 2 6 23 14 16 7 17 26 20 23 34 35 33 32 38 38 44 54 54 57 56 73 87 88 83 78 83 90 97 100 99 98 106 114 115 123 123 124 121
27 31 24 11 9 8 14 16 25 11 23 32 22 33 45 43 38 34 38 38 46 51 54 59 59 74 85 92 99 96 100 99 98 94 85 92 98 93 89 95 102 120 126 131
9 12 24 8 11 12 6 5 15 33 44 42 42 40 39 37 38 34 32 38 42 54 63 71 72 79 93 103 107 110 113 116 117 113 108 100 95 99 91 91 95 104 103 114
15 12 8 24 26 34 37 42 53 54 49 42 38 35 36 37 31 30 35 44 54 65 72 73 79 88 98 103 102 106 110 114 116 115 110 100 90 87 84 82 84 90 88 92
23 31 51 60 63 63 57 58 59 54 47 39 37 32 28 25 32 40 44 53 58 66 71 81 87 91 90 92 95 99 105 108 105 98 94 87 80 75 76 75 75 79 83 87
27 43 52 59 61 63 60 57 54 43 39 39 33 34 28 35 41 43 50 55 59 66 76 86 87 88 86 87 88 94 98 98 93 87 81 82 80 78 76 78 78 84 87 89
29 52 44 52 57 51 46 55 53 49 47 43 41 39 38 39 42 47 53 56 62 70 79 81 82 82 82 79 81 86 89 86 85 87 88 84 82 84 74 72 74 77 82 88
54 71 70 74 68 61 55 53 48 53 50 43 41 40 39 41 44 48 51 57 65 73 76 73 75 78 75 76 76 75 78 82 84 85 86 85 83 82 87 90 76 74 75 76
64 65 62 68 53 46 46 47 45 43 41 37 38 41 41 42 43 46 52 59 65 66 65 64 68 72 72 74 74 76 76 78 79 78 78 80 82 85 85 86 88 97 80 67
63 58 57 58 52 55 47 45 43 41 40 39 41 39 39 40 43 49 54 58 60 58 55 58 63 65 68 71 73 75 75 77 74 74 77 80 84 83 82 81 83 85 85 74
54 56 48 45 45 47 43 41 40 39 37 37 37 38 38 41 47 52 52 50 54 52 48 53 57 62 65 68 72 75 74 70 68 72 75 74 74 75 77 78 79 79 74 67
40 35 35 39 39 40 37 35 33 33 36 36 37 39 41 45 50 51 49 44 44 41 41 47 54 58 58 65 67 69 70 68 62 63 64 65 70 69 70 71 69 65 63 59
40 38 35 33 27 30 30 30 32 34 34 36 39 43 46 47 50 52 47 42 38 34 32 40 46 51 52 57 63 63 61 60 59 57 59 60 59 56 53 51 48 54 55 49
35 33 30 28 26 26 26 29 32 34 35 40 45 48 48 46 47 47 41 38 34 35 32 35 39 43 47 54 59 56 54 55 53 51 52 53 54 52 50 48 48 45 43 40
28 27 25 24 22 24 25 29 34 38 38 44 47 49 49 44 42 41 35 33 27 30 32 34 37 40 47 49 52 54 52 49 48 48 48 50 51 53 52 47 45 43 41 39
20 20 20 21 22 24 28 33 38 40 40 42 45 46 46 43 38 34 31 26 20 24 25 27 32 38 41 44 45 50 52 49 46 45 46 48 50 51 53 51 46 43 42 39
17 17 19 22 25 25 29 34 38 41 41 40 40 41 40 36 29 26 24 25 21 20 21 24 27 31 35 36 38 41 45 47 45 44 44 45 48 50 54 54 53 50 47 44
15 18 20 23 25 28 28 32 34 36 36 35 34 30 29 24 22 21 17 19 20 18 19 22 25 28 30 31 32 34 36 41 45 46 46 45 46 46 47 50 50 50 50 49
14 15 18 20 23 26 27 26 27 27 26 24 23 20 19 17 18 18 17 16 16 17 19 21 23 25 27 27 27 29 30 33 37 40 41 40 41 41 42 42 42 41 40 39
10 12 13 16 18 20 21 21 19 17 16 15 14 12 13 14 15 15 15 15 15 17 18 19 21 23 23 23 24 25 26 28 29 30 32 34 35 36 36 36 37 36 35 34
5 6 8 9 12 15 16 14 13 13 12 11 10 11 11 11 12 13 14 15 17 18 20 21 21 22 23 23 24 25 25 26 26 26 26 26 25 26 26 27 27 27 27 27
2 2 6 9 11 12 12 11 11 10 10 11 11 12 12 12 14 15 16 17 18 19 20 21 21 22 23 24 25 25 25 25 26 26 25 25 25 25 24 23 22 21 21 20
Wind_Direction_500mb
265 270 279 284 282 276 271 272 271 282 288 289 295 291 304 314 308 276 263 302 319 323 327 321 316 312 323 327 321 322 325 324 324 319 318 319 319 321 321 320 318 317 316 315
278 274 273 274 270 268 274 276 276 278 277 281 1 35 260 250 275 288 268 294 315 322 322 317 310 300 299 307 308 318 318 316 311 306 304 305 307 310 311 313 313 312 311 311
266 280 288 272 258 267 266 264 268 272 303 355 334 292 299 289 281 303 287 281 300 311 319 322 318 312 300 299 301 312 315 314 311 307 302 299 298 299 301 303 305 306 305 306
272 284 261 268 285 285 284 291 295 307 119 116 351 321 309 294 287 292 296 280 282 295 303 309 312 311 303 299 308 315 316 315 314 312 309 305 301 298 295 294 294 296 298 299
253 251 275 289 286 288 294 290 312 183 169 11 335 320 300 301 318 310 294 294 292 290 293 305 314 314 304 306 312 311 310 310 309 306 304 303 301 299 296 294 290 288 288 290
245 258 266 282 10 24 300 278 120 118 199 295 308 290 293 314 313 295 289 299 298 285 294 305 313 308 305 310 312 311 308 304 302 302 300 296 293 293 294 292 291 288 284 282
244 255 267 265 94 127 244 295 153 187 298 296 283 278 293 292 289 288 294 293 287 291 298 305 305 306 309 311 312 312 307 303 300 298 292 289 289 288 285 284 285 287 287 284
223 261 270 87 131 226 323 212 264 299 300 292 288 284 283 284 287 292 288 293 295 295 300 305 309 310 311 311 312 309 307 304 303 301 299 295 291 289 286 283 282 282 284 286
231 253 258 195 249 263 276 277 288 290 293 292 280 277 281 286 284 287 293 292 296 298 303 308 311 314 312 312 311 309 307 305 304 304 304 304 299 294 289 285 281 279 279 279
256 250 258 268 271 272 278 278 283 286 289 280 269 276 278 275 276 285 292 298 301 306 309 310 312 313 313 314 314 311 310 309 310 310 311 309 303 296 291 288 284 280 278 278
252 258 268 266 267 270 274 279 282 284 279 269 264 270 273 274 284 293 296 301 305 308 309 311 315 314 317 319 317 314 313 311 310 309 306 303 299 294 291 288 285 283 280 278
252 260 263 272 279 281 284 283 280 274 267 266 265 269 273 279 287 293 299 304 306 309 311 316 316 317 321 322 321 315 310 311 310 310 310 305 301 298 297 292 289 285 282 278
256 262 264 268 279 283 283 278 266 265 263 258 265 269 275 283 290 295 301 306 309 312 315 317 316 319 327 325 318 320 319 317 315 313 309 305 302 298 297 303 298 292 287 284
254 261 265 266 274 279 274 269 260 259 257 260 263 271 277 284 291 297 303 309 312 313 316 316 319 327 329 325 328 325 323 320 315 311 305 301 299 298 297 295 297 301 305 295
264 261 262 271 269 269 263 259 257 252 258 259 262 269 277 286 292 299 307 311 310 314 318 321 325 330 329 332 330 327 326 326 322 314 312 309 306 302 299 297 296 297 304 310
269 267 266 261 264 264 259 252 249 255 257 259 267 273 281 289 295 302 309 310 310 316 320 325 329 331 336 333 335 331 330 325 329 321 316 317 316 310 306 302 301 305 310 320
261 263 265 264 259 255 252 248 248 252 258 266 274 281 288 293 297 305 310 308 307 314 322 324 332 335 338 342 333 333 329 332 330 329 328 327 322 317 316 316 310 319 325 333
260 262 264 266 258 248 250 254 259 263 269 276 281 285 290 295 302 304 307 305 305 311 319 327 332 333 345 344 342 335 332 335 336 334 336 334 334 335 335 334 332 327 326 327
258 259 259 257 256 255 257 261 267 272 278 282 285 289 292 297 299 300 301 299 303 312 324 329 333 337 352 356 348 344 344 343 343 345 345 347 351 353 353 351 351 350 348 345
247 248 250 253 257 261 264 270 273 277 281 282 285 290 294 296 294 291 289 290 296 309 324 333 334 346 1 359 355 359 355 353 353 355 357 359 2 3 2 2 4 5 5 9
240 240 245 251 259 267 273 276 280 285 289 290 291 292 292 291 286 280 278 280 290 305 321 330 340 352 358 356 360 4 5 3 2 3 6 8 10 14 16 17 19 22 25 27
232 242 253 264 273 278 285 290 292 293 294 295 293 292 288 287 278 269 268 275 292 306 322 333 345 352 355 354 5 9 12 13 13 13 14 18 22 27 31 34 36 39 40 42
240 260 271 281 291 296 296 296 296 298 299 298 294 289 282 275 262 265 268 270 293 308 323 334 343 346 350 353 3 10 15 19 22 25 26 27 31 36 39 42 45 49 52 55
260 277 288 296 304 310 313 312 308 307 306 302 295 286 277 270 266 265 274 284 299 312 319 329 335 341 343 348 358 4 10 17 21 25 28 30 34 37 40 43 45 47 51 57
270 289 305 313 317 320 321 319 319 322 319 317 304 290 279 274 272 266 283 293 305 311 321 328 332 333 333 341 349 356 1 7 12 16 19 22 26 31 34 37 39 42 47 50
269 291 314 329 333 331 329 328 328 324 321 321 304 303 294 288 284 288 294 304 309 314 321 325 326 328 333 339 344 348 350 352 356 0 2 5 10 13 17 22 25 29 32 35
174 11 0 350 345 343 342 338 333 330 324 320 317 303 306 301 298 299 304 307 310 314 319 323 326 329 333 337 341 343 344 345 347 348 348 350 352 355 357 0 2 1 3 4
Wind_Speed_850mb
35 42 43 41 41 50 51 49 46 51 47 45 42 35 30 20 8 12 11 9 11 15 19 22 25 28 30 37 40 44 51 54 57 64 70 74 78 77 73 68 65 62 61 56
34 39 41 43 50 52 46 48 51 49 53 45 18 7 3 6 10 18 19 14 16 18 21 24 27 29 31 33 38 48 55 58 59 63 68 76 83 86 85 84 83 77 72 70
37 31 35 32 45 46 49 48 49 46 25 16 10 6 10 15 17 20 24 24 23 25 28 32 36 37 38 39 44 64 72 72 71 71 74 77 81 86 93 97 98 95 91 86
28 25 39 27 26 28 31 27 23 14 4 5 5 15 20 22 27 29 30 33 34 33 36 37 39 41 42 48 64 77 80 79 80 84 87 89 88 89 90 92 97 103 106 103
18 27 36 49 39 36 30 31 16 12 9 4 19 29 36 25 18 31 32 34 40 38 37 44 45 45 53 72 77 73 72 79 85 88 96 104 110 112 110 110 107 106 109 115
20 30 34 32 2 2 6 23 14 16 7 17 26 20 23 34 35 33 32 38 38 44 54 54 57 56 73 87 88 83 78 83 90 97 100 99 98 106 114 115 123 123 124 121
27 31 24 11 9 8 14 16 25 11 23 32 22 33 45 43 38 34 38 38 46 51 54 59 59 74 85 92 99 96 100 99 98 94 85 92 98 93 89 95 102 120 126 131
9 12 24 8 11 12 6 5 15 33 44 42 42 40 39 37 38 34 32 38 42 54 63 71 72 79 93 103 107 110 113 116 117 113 108 100 95 99 91 91 95 104 103 114
15 12 8 24 26 34 37 42 53 54 49 42 38 35 36 37 31 30 35 44 54 65 72 73 79 88 98 103 102 106 110 114 116 115 110 100 90 87 84 82 84 90 88 92
23 31 51 60 63 63 57 58 59 54 47 39 37 32 28 25 32 40 44 53 58 66 71 81 87 91 90 92 95 99 105 108 105 98 94 87 80 75 76 75 75 79 83 87
27 43 52 59 61 63 60 57 54 43 39 39 33 34 28 35 41 43 50 55 59 66 76 86 87 88 86 87 88 94 98 98 93 87 81 82 80 78 76 78 78 84 87 89
29 52 44 52 57 51 46 55 53 49 47 43 41 39 38 39 42 47 53 56 62 70 79 81 82 82 82 79 81 86 89 86 85 87 88 84 82 84 74 72 74 77 82 88
54 71 70 74 68 61 55 53 48 53 50 43 41 40 39 41 44 48 51 57 65 73 76 73 75 78 75 76 76 75 78 82 84 85 86 85 83 82 87 90 76 74 75 76
64 65 62 68 53 46 46 47 45 43 41 37 38 41 41 42 43 46 52 59 65 66 65 64 68 72 72 74 74 76 76 78 79 78 78 80 82 85 85 86 88 97 80 67
63 58 57 58 52 55 47 45 43 41 40 39 41 39 39 40 43 49 54 58 60 58 55 58 63 65 68 71 73 75 75 77 74 74 77 80 84 83 82 81 83 85 85 74
54 56 48 45 45 47 43 41 40 39 37 37 37 38 38 41 47 52 52 50 54 52 48 53 57 62 65 68 72 75 74 70 68 72 75 74 74 75 77 78 79 79 74 67
40 35 35 39 39 40 37 35 33 33 36 36 37 39 41 45 50 51 49 44 44 41 41 47 54 58 58 65 67 69 70 68 62 63 64 65 70 69 70 71 69 65 63 59
40 38 35 33 27 30 30 30 32 34 34 36 39 43 46 47 50 52 47 42 38 34 32 40 46 51 52 57 63 63 61 60 59 57 59 60 59 56 53 51 48 54 55 49
35 33 30 28 26 26 26 29 32 34 35 40 45 48 48 46 47 47 41 38 34 35 32 35 39 43 47 54 59 56 54 55 53 51 52 53 54 52 50 48 48 45 43 40
28 27 25 24 22 24 25 29 34 38 38 44 47 49 49 44 42 41 35 33 27 30 32 34 37 40 47 49 52 54 52 49 48 48 48 50 51 53 52 47 45 43 41 39
20 20 20 21 22 24 28 33 38 40 40 42 45 46 46 43 38 34 31 26 20 24 25 27 32 38 41 44 45 50 52 49 46 45 46 48 50 51 53 51 46 43 42 39
17 17 19 22 25 25 29 34 38 41 41 40 40 41 40 36 29 26 24 25 21 20 21 24 27 31 35 36 38 41 45 47 45 44 44 45 48 50 54 54 53 50 47 44
15 18 20 23 25 28 28 32 34 36 36 35 34 30 29 24 22 21 17 19 20 18 19 22 25 28 30 31 32 34 36 41 45 46 46 45 46 46 47 50 50 50 50 49
14 15 18 20 23 26 27 26 27 27 26 24 23 20 19 17 18 18 17 16 16 17 19 21 23 25 27 27 27 29 30 33 37 40 41 40 41 41 42 42 42 41 40 39
10 12 13 16 18 20 21 21 19 17 16 15 14 12 13 14 15 15 15 15 15 17 18 19 21 23 23 23 24 25 26 28 29 30 32 34 35 36 36 36 37 36 35 34
5 6 8 9 12 15 16 14 13 13 12 11 10 11 11 11 12 13 14 15 17 18 20 21 21 22 23 23 24 25 25 26 26 26 26 26 25 26 26 27 27 27 27 27
2 2 6 9 11 12 12 11 11 10 10 11 11 12 12 12 14 15 16 17 18 19 20 21 21 22 23 24 25 25 25 25 26 26 25 25 25 25 24 23 22 21 21 20
Wind_Direction_850mb
265 270 279 284 282 276 271 272 271 282 288 289 295 291 304 314 308 276 263 302 319 323 327 321 316 312 323 327 321 322 325 324 324 319 318 319 319 321 321 320 318 317 316 315
278 274 273 274 270 268 274 276 276 278 277 281 1 35 260 250 275 288 268 294 315 322 322 317 310 300 299 307 308 318 318 316 311 306 304 305 307 310 311 313 313 312 311 311
266 280 288 272 258 267 266 264 268 272 303 355 334 292 299 289 281 303 287 281 300 311 319 322 318 312 300 299 301 312 315 314 311 307 302 299 298 299 301 303 305 306 305 306
272 284 261 268 285 285 284 291 295 307 119 116 351 321 309 294 287 292 296 280 282 295 303 309 312 311 303 299 308 315 316 315 314 312 309 305 301 298 295 294 294 296 298 299
253 251 275 289 286 288 294 290 312 183 169 11 335 320 300 301 318 310 294 294 292 290 293 305 314 314 304 306 312 311 310 310 309 306 304 303 301 299 296 294 290 288 288 290
245 258 266 282 10 24 300 278 120 118 199 295 308 290 293 314 313 295 289 299 298 285 294 305 313 308 305 310 312 311 308 304 302 302 300 296 293 293 294 292 291 288 284 282
244 255 267 265 94 127 244 295 153 187 298 296 283 278 293 292 289 288 294 293 287 291 298 305 305 306 309 311 312 312 307 303 300 298 292 289 289 288 285 284 285 287 287 284
223 261 270 87 131 226 323 212 264 299 300 292 288 284 283 284 287 292 288 293 295 295 300 305 309 310 311 311 312 309 307 304 303 301 299 295 291 289 286 283 282 282 284 286
231 253 258 195 249 263 276 277 288 290 293 292 280 277 281 286 284 287 293 292 296 298 303 308 311 314 312 312 311 309 307 305 304 304 304 304 299 294 289 285 281 279 279 279
256 250 258 268 271 272 278 278 283 286 289 280 269 276 278 275 276 285 292 298 301 306 309 310 312 313 313 314 314 311 310 309 310 310 311 309 303 296 291 288 284 280 278 278
252 258 268 266 267 270 274 279 282 284 279 269 264 270 273 274 284 293 296 301 305 308 309 311 315 314 317 319 317 314 313 311 310 309 306 303 299 294 291 288 285 283 280 278
252 260 263 272 279 281 284 283 280 274 267 266 265 269 273 279 287 293 299 304 306 309 311 316 316 317 321 322 321 315 310 311 310 310 310 305 301 298 297 292 289 285 282 278
256 262 264 268 279 283 283 278 266 265 263 258 265 269 275 283 290 295 301 306 309 312 315 317 316 319 327 325 318 320 319 317 315 313 309 305 302 298 297 303 298 292 287 284
254 261 265 266 274 279 274 269 260 259 257 260 263 271 277 284 291 297 303 309 312 313 316 316 319 327 329 325 328 325 323 320 315 311 305 301 299 298 297 295 297 301 305 295
264 261 262 271 269 269 263 259 257 252 258 259 262 269 277 286 292 299 307 311 310 314 318 321 325 330 329 332 330 327 326 326 322 314 312 309 306 302 299 297 296 297 304 310
269 267 266 261 264 264 259 252 249 255 257 259 267 273 281 289 295 302 309 310 310 316 320 325 329 331 336 333 335 331 330 325 329 321 316 317 316 310 306 302 301 305 310 320
261 263 265 264 259 255 252 248 248 252 258 266 274 281 288 293 297 305 310 308 307 314 322 324 332 335 338 342 333 333 329 332 330 329 328 327 322 317 316 316 310 319 325 333
260 262 264 266 258 248 250 254 259 263 269 276 281 285 290 295 302 304 307 305 305 311 319 327 332 333 345 344 342 335 332 335 336 334 336 334 334 335 335 334 332 327 326 327
258 259 259 257 256 255 257 261 267 272 278 282 285 289 292 297 299 300 301 299 303 312 324 329 333 337 352 356 348 344 344 343 343 345 345 347 351 353 353 351 351 350 348 345
247 248 250 253 257 261 264 270 273 277 281 282 285 290 294 296 294 291 289 290 296 309 324 333 334 346 1 359 355 359 355 353 353 355 357 359 2 3 2 2 4 5 5 9
240 240 245 251 259 267 273 276 280 285 289 290 291 292 292 291 286 280 278 280 290 305 321 330 340 352 358 356 360 4 5 3 2 3 6 8 10 14 16 17 19 22 25 27
232 242 253 264 273 278 285 290 292 293 294 295 293 292 288 287 278 269 268 275 292 306 322 333 345 352 355 354 5 9 12 13 13 13 14 18 22 27 31 34 36 39 40 42
240 260 271 281 291 296 296 296 296 298 299 298 294 289 282 275 262 265 268 270 293 308 323 334 343 346 350 353 3 10 15 19 22 25 26 27 31 36 39 42 45 49 52 55
260 277 288 296 304 310 313 312 308 307 306 302 295 286 277 270 266 265 274 284 299 312 319 329 335 341 343 348 358 4 10 17 21 25 28 30 34 37 40 43 45 47 51 57
270 289 305 313 317 320 321 319 319 322 319 317 304 290 279 274 272 266 283 293 305 311 321 328 332 333 333 341 349 356 1 7 12 16 19 22 26 31 34 37 39 42 47 50
269 291 314 329 333 331 329 328 328 324 321 321 304 303 294 288 284 288 294 304 309 314 321 325 326 328 333 339 344 348 350 352 356 0 2 5 10 13 17 22 25 29 32 35
174 11 0 350 345 343 342 338 333 330 324 320 317 303 306 301 298 299 304 307 310 314 319 323 326 329 333 337 341 343 344 345 347 348 348 350 352 355 357 0 2 1 3 4